Austin, TX

4:48 AM CDT on May 21, 2018 (GMT -0500)
Austin

Weather History for KATT - September, 2013

Change the Weather History Date:

Monday, September 2, 2013

  Actual Average Record
Temperature  
Mean Temperature 90 °F 84 °F  
Max Temperature 103 °F 94 °F 107 °F (2000)
Min Temperature 77 °F 73 °F 58 °F (1915)
Degree Days  
Heating Degree Days 0 0  
Month to date heating degree days 0 0  
Since 1 July heating degree days 0 0  
Cooling Degree Days 25 19  
Month to date cooling degree days 50 38  
Year to date cooling degree days 2660 2432  
Growing Degree Days 40 (Base 50)    
Moisture  
Dew Point 66 °F    
Average Humidity 54    
Maximum Humidity 82    
Minimum Humidity 25    
Precipitation  
Precipitation 0.00 in 0.12 in 3.55 in (2010)
Month to date precipitation 0.00 0.23  
Year to date precipitation 17.78 22.32  
Snow  
Snow 0.00 in - - ()
Month to date snowfall 0.0  
Since 1 July snowfall 0.0  
Since 1 September snowfall 0.0  
Snow Depth 0.00 in    
Sea Level Pressure  
Sea Level Pressure 29.89 in    
Wind  
Wind Speed 4 mph (South)    
Max Wind Speed 12 mph    
Max Gust Speed 19 mph    
Visibility 10 miles    
Events Thunderstorm    
T = Trace of Precipitation, MM = Missing Value Source: NWS Daily Summary

Daily Weather History Graph

Daily Weather History Graph

Search for Another Location

Airport or City:

Astronomy

Sep. 02, 2013 Rise Set
Actual Time 7:08 AM CDT 7:52 PM CDT
Civil Twilight 6:44 AM CDT 8:16 PM CDT
Nautical Twilight 6:15 AM CDT 8:45 PM CDT
Astronomical Twilight 5:46 AM CDT 9:14 PM CDT
Moon 4:33 AM CDT (9/2) 6:01 PM CDT (9/2)
Length of Visible Light 13h 32m
Length of Day
12h 43m
Waning Crescent, 8% of the Moon is Illuminated
Sep 2
Waning Crescent
Sep 5
New
Sep 12
First Quarter
Sep 19
Full
Sep 26
Last Quarter

Hourly Weather History & Observations

Time (CDT) Temp. Heat Index Dew Point Humidity Pressure Visibility Wind Dir Wind Speed Gust Speed Precip Events Conditions
12:51 AM 84.0 °F 87.8 °F 69.1 °F 61% 29.87 in 10.0 mi South 5.8 mph - N/A   Clear
1:51 AM 82.0 °F 85.9 °F 70.0 °F 67% 29.86 in 10.0 mi South 4.6 mph - N/A   Clear
2:51 AM 81.0 °F 84.9 °F 71.1 °F 72% 29.87 in 10.0 mi South 4.6 mph - N/A   Clear
3:51 AM 80.1 °F 83.6 °F 71.1 °F 74% 29.88 in 10.0 mi Variable 4.6 mph - N/A   Clear
4:51 AM 79.0 °F - 71.1 °F 77% 29.88 in 10.0 mi SSW 4.6 mph - N/A   Clear
5:51 AM 78.1 °F - 71.1 °F 79% 29.88 in 10.0 mi Calm Calm - N/A   Clear
6:51 AM 77.0 °F - 71.1 °F 82% 29.90 in 10.0 mi Calm Calm - N/A   Clear
7:51 AM 78.1 °F - 72.0 °F 81% 29.93 in 10.0 mi Calm Calm - N/A   Clear
8:51 AM 82.0 °F 87.4 °F 73.0 °F 74% 29.94 in 10.0 mi Variable 3.5 mph - N/A   Partly Cloudy
9:51 AM 84.9 °F 90.7 °F 72.0 °F 65% 29.95 in 10.0 mi Calm Calm - N/A   Clear
10:51 AM 89.1 °F 93.7 °F 69.1 °F 52% 29.95 in 10.0 mi Variable 4.6 mph - N/A   Clear
11:51 AM 93.0 °F 97.4 °F 68.0 °F 44% 29.94 in 10.0 mi Variable 5.8 mph - N/A   Clear
12:51 PM 95.0 °F 97.9 °F 66.0 °F 38% 29.92 in 10.0 mi Variable 4.6 mph - N/A   Overcast
1:51 PM 98.1 °F 100.7 °F 64.0 °F 33% 29.89 in 10.0 mi Variable 4.6 mph - N/A   Clear
2:51 PM 100.0 °F 101.2 °F 61.0 °F 28% 29.86 in 10.0 mi North - - N/A   Partly Cloudy
3:51 PM 100.9 °F 101.6 °F 60.1 °F 26% 29.83 in 10.0 mi Calm Calm - N/A   Clear
4:51 PM 102.0 °F 102.2 °F 59.0 °F 24% 29.81 in 10.0 mi SSE 6.9 mph - N/A   Scattered Clouds
5:51 PM 98.1 °F 98.1 °F 60.1 °F 28% 29.80 in 10.0 mi Variable 4.6 mph - N/A   Partly Cloudy
6:51 PM 98.1 °F 98.6 °F 61.0 °F 29% 29.80 in 10.0 mi ESE 6.9 mph - N/A   Mostly Cloudy
7:51 PM 95.0 °F 95.2 °F 61.0 °F 32% 29.81 in 10.0 mi SE 4.6 mph - N/A Thunderstorm Thunderstorm
8:10 PM 93.9 °F 94.0 °F 61.0 °F 33% 29.87 in 10.0 mi SE 5.8 mph - N/A   Mostly Cloudy
8:51 PM 86.0 °F 88.2 °F 66.0 °F 51% 29.87 in 10.0 mi North 9.2 mph 19.6 mph N/A   Overcast
9:06 PM 87.1 °F 88.9 °F 64.9 °F 48% 29.92 in 10.0 mi Variable 6.9 mph - N/A Thunderstorm Overcast
9:14 PM 87.1 °F 88.9 °F 64.9 °F 48% 29.92 in 10.0 mi WNW 6.9 mph - N/A Thunderstorm Thunderstorm
9:30 PM 87.1 °F 88.9 °F 64.9 °F 48% 29.93 in 10.0 mi Calm Calm - N/A   Mostly Cloudy
9:51 PM 87.1 °F 89.2 °F 66.0 °F 49% 29.90 in 10.0 mi Calm Calm - N/A   Mostly Cloudy
10:51 PM 84.9 °F 87.1 °F 66.0 °F 53% 29.91 in 10.0 mi Calm Calm - N/A   Mostly Cloudy
11:51 PM 86.0 °F 87.6 °F 64.9 °F 49% 29.91 in 10.0 mi SSW 4.6 mph - N/A   Partly Cloudy